カタログに戻る

STARLINK-37756

運用中通信VLEO
NORAD 100047·PAYLOAD·🇺🇸 United States

打ち上げ Jul 14, 2026 から Cape Canaveral Space Force Station

Loading…

次のパス (今後24時間)

TLE

最新Source: Space-Track

元期: Sep 14, 2026, 02:04 UTC

1 A0047U 26161V   26257.08658607  .00014326  00000-0  43425-3 0  9996
2 A0047  53.1630  27.8595 0001127  46.2116 313.8980 15.34404877  9620

AllMySatでSTARLINK-37756をリアルタイム追跡

Download on the App Store